E2682 Weather Reports


time (UTC)temp
F
wind
direction
speed
knots
gust
knots
rain 1hr
in
rain 24hr
in
rain mn
in
humidity
%
barometer
mb
20260503215233 90 320 3.5 8.7 0.00 0.00 0.00 18 979.3
20260503214733 90 341 4.3 9.6 0.00 0.00 0.00 18 979.5
20260503213732 90 353 0.9 8.7 0.00 0.00 0.00 17 979.5
20260503213233 90 338 3.5 9.6 0.00 0.00 0.00 17 979.4
20260503212733 90 330 0.9 9.6 0.00 0.00 0.00 17 979.5
20260503212232 91 348 3.5 8.7 0.00 0.00 0.00 17 979.6
20260503211732 90 343 2.6 6.1 0.00 0.00 0.00 16 979.6
20260503211231 91 331 0.0 6.1 0.00 0.00 0.00 17 979.7
20260503210732 91 330 0.0 10.4 0.00 0.00 0.00 17 979.7
20260503210235 91 327 1.7 10.4 0.00 0.00 0.00 16 979.8
20260503205736 90 358 1.7 8.7 0.00 0.00 0.00 17 979.7
20260503205236 90 350 0.9 8.7 0.00 0.00 0.00 17 979.7
20260503204735 90 324 1.7 10.4 0.00 0.00 0.00 17 979.5
20260503204235 90 347 2.6 10.4 0.00 0.00 0.00 17 979.6
20260503203238 91 324 0.9 6.1 0.00 0.00 0.00 17 979.4
20260503201736 90 314 0.9 9.6 0.00 0.00 0.00 18 979.2
20260503201236 90 330 1.7 9.6 0.00 0.00 0.00 18 979.5
20260503200736 90 323 0.0 9.6 0.00 0.00 0.00 19 979.7
20260503200236 90 313 4.3 9.6 0.00 0.00 0.00 19 979.9
20260503195736 90 323 1.7 5.2 0.00 0.00 0.00 19 979.9
20260503195234 90 312 0.0 4.3 0.00 0.00 0.00 19 979.9
20260503194735 89 312 0.9 4.3 0.00 0.00 0.00 20 979.8
20260503194235 89 38 0.0 8.7 0.00 0.00 0.00 21 979.8
20260503193235 89 321 0.0 2.6 0.00 0.00 0.00 21 979.8
20260503192732 0 0.0 0.0 0.00 0.00 0.00 979.9
20260503192233 0 300 0.9 1.7 0.00 0.00 0.00 980.1
20260503191232 89 313 0.0 1.7 0.00 0.00 0.00 20 980.4
20260503190733 88 276 0.0 1.7 0.00 0.00 0.00 21 980.3
20260503190233 88 313 1.7 6.1 0.00 0.00 0.00 21 980.5
20260503185732 88 310 1.7 6.1 0.00 0.00 0.00 21 980.5
20260503185232 88 316 0.0 4.3 0.00 0.00 0.00 21 980.5
20260503184732 88 317 0.0 4.3 0.00 0.00 0.00 22 980.6
20260503184233 88 286 0.0 1.7 0.00 0.00 0.00 20 980.7
20260503183733 88 286 0.0 2.6 0.00 0.00 0.00 20 980.8
20260503183232 87 269 0.9 2.6 0.00 0.00 0.00 22 980.9
20260503182732 86 286 0.0 1.7 0.00 0.00 0.00 22 980.9
20260503182233 86 286 0.0 5.2 0.00 0.00 0.00 22 981.1
20260503181733 86 324 0.0 5.2 0.00 0.00 0.00 22 981.1
20260503181233 86 312 0.0 3.5 0.00 0.00 0.00 22 981.2
20260503180732 87 290 0.0 1.7 0.00 0.00 0.00 22 981.3
20260503180233 86 272 0.0 7.8 0.00 0.00 0.00 20 981.4
20260503175732 86 320 0.0 7.8 0.00 0.00 0.00 21 981.5
20260503174732 86 307 0.0 3.5 0.00 0.00 0.00 20 981.3
20260503174232 86 307 0.9 3.5 0.00 0.00 0.00 20 981.3
20260503173732 85 357 0.0 2.6 0.00 0.00 0.00 21 981.3
20260503173233 85 18 0.0 2.6 0.00 0.00 0.00 21 981.3
20260503172733 85 313 0.0 2.6 0.00 0.00 0.00 21 981.3
20260503172231 84 313 0.0 1.7 0.00 0.00 0.00 22 981.4
20260503171233 84 313 0.9 3.5 0.00 0.00 0.00 23 981.4
20260503170731 83 241 0.0 1.7 0.00 0.00 0.00 25 981.3
20260503170233 83 266 0.0 1.7 0.00 0.00 0.00 25 981.4
20260503150732 77 250 0.0 0.9 0.00 0.00 0.00 36 981.2
20260503140233 73 220 0.0 0.0 0.00 0.00 0.00 39 980.7
20260503131232 71 220 0.0 0.0 0.00 0.00 0.00 44 979.8
20260503130732 71 220 0.0 0.9 0.00 0.00 0.00 44 979.8
20260503130233 71 220 0.0 0.9 0.00 0.00 0.00 43 979.7
20260503110735 73 351 0.0 0.0 0.00 0.00 0.00 40 979.3
20260503100236 73 351 0.0 0.0 0.00 0.00 0.00 37 979.9
20260503090235 76 351 0.0 0.0 0.00 0.00 0.00 31 980.0
20260503081236 78 351 0.0 0.0 0.00 0.00 0.00 29 980.2
20260503080734 0 0.0 0.0 0.00 0.00 0.00 980.1
20260503080235 78 351 0.0 0.0 0.00 0.00 0.00 30 980.1
20260503072740 78 351 0.0 0.0 0.00 0.00 0.00 30 980.3
20260503072237 78 351 0.0 0.0 0.00 0.00 0.00 30 980.3
20260503071736 78 351 0.0 0.0 0.00 0.00 0.00 30 980.3
20260503071235 78 351 0.0 0.0 0.00 0.00 0.00 30 980.2
20260503070736 78 351 0.0 0.0 0.00 0.00 0.00 30 980.2
20260503070234 78 351 0.0 0.0 0.00 0.00 0.00 30 980.3
20260503060232 80 351 0.0 0.0 0.00 0.00 0.00 28 979.8
20260503054233 80 351 0.0 0.0 0.00 0.00 0.00 28 979.6
20260503053733 80 351 0.0 0.0 0.00 0.00 0.00 28 979.6
20260503053233 80 351 0.0 0.0 0.00 0.00 0.00 28 979.5
20260503052733 81 351 0.0 0.0 0.00 0.00 0.00 27 979.5
20260503052234 81 351 0.0 0.0 0.00 0.00 0.00 27 979.5
20260503051732 81 351 0.0 0.0 0.00 0.00 0.00 27 979.4
20260503051231 81 351 0.0 0.0 0.00 0.00 0.00 27 979.4
20260503050733 81 351 0.0 0.0 0.00 0.00 0.00 27 979.3
20260503050232 82 351 0.0 0.0 0.00 0.00 0.00 27 979.1
20260503045733 82 351 0.0 0.9 0.00 0.00 0.00 27 979.1
20260503045231 82 351 0.0 0.9 0.00 0.00 0.00 27 979.1
20260503044733 82 351 0.0 0.9 0.00 0.00 0.00 27 979.3
20260503044233 82 351 0.0 0.9 0.00 0.00 0.00 27 979.2
20260503043734 82 351 0.0 1.7 0.00 0.00 0.00 26 979.0
20260503043233 83 351 0.0 1.7 0.00 0.00 0.00 26 979.1
20260503041732 83 350 0.0 0.0 0.00 0.00 0.00 26 978.9
20260503041233 83 348 0.0 1.7 0.00 0.00 0.00 26 978.9
20260503035733 83 350 0.0 0.0 0.00 0.00 0.00 26 978.6
20260503035232 83 348 0.0 0.9 0.00 0.00 0.00 26 978.5
20260503034733 84 350 0.0 0.9 0.00 0.00 0.00 26 978.5
20260503034232 84 350 0.0 2.6 0.00 0.00 0.00 26 978.5
20260503033732 84 348 0.0 2.6 0.00 0.00 0.00 26 978.4
20260503033233 84 348 0.9 0.9 0.00 0.00 0.00 26 978.4
20260503032732 84 348 0.0 0.9 0.00 0.00 0.00 26 978.3
20260503032232 84 347 0.0 0.0 0.00 0.00 0.00 26 978.2
20260503031732 84 348 0.0 0.9 0.00 0.00 0.00 26 978.2
20260503031233 85 347 0.0 2.6 0.00 0.00 0.00 26 978.2
20260503030732 85 348 0.9 4.3 0.00 0.00 0.00 26 978.1
20260503030233 85 345 0.9 5.2 0.00 0.00 0.00 26 978.1
20260503025733 85 341 1.7 5.2 0.00 0.00 0.00 26 977.9
20260503025231 85 343 0.9 10.4 0.00 0.00 0.00 26 977.9
20260503024733 85 327 2.6 10.4 0.00 0.00 0.00 26 978.0
20260503024232 85 341 1.7 7.8 0.00 0.00 0.00 25 977.9
20260503023732 86 341 2.6 7.8 0.00 0.00 0.00 25 977.8
20260503023233 86 333 0.0 6.1 0.00 0.00 0.00 25 978.0
20260503022732 86 343 0.9 6.1 0.00 0.00 0.00 25 977.9
20260503022233 87 347 1.7 8.7 0.00 0.00 0.00 25 977.7
20260503021731 87 345 4.3 8.7 0.00 0.00 0.00 25 977.7
20260503021231 87 338 1.7 8.7 0.00 0.00 0.00 25 977.7
20260503020233 87 347 2.6 8.7 0.00 0.00 0.00 24 977.5
20260503015736 88 331 3.5 10.4 0.00 0.00 0.00 24 977.3
20260503014735 88 329 3.5 10.4 0.00 0.00 0.00 24 977.2
20260503014236 88 334 2.6 11.3 0.00 0.00 0.00 24 977.0
20260503013736 89 321 3.5 11.3 0.00 0.00 0.00 24 976.9
20260503012733 89 336 3.5 13.9 0.00 0.00 0.00 24 977.0
20260503012234 89 338 7.0 13.9 0.00 0.00 0.00 24 976.9
20260503011735 90 326 4.3 12.2 0.00 0.00 0.00 24 976.9
20260503010735 91 331 1.7 11.3 0.00 0.00 0.00 23 976.8
20260503010236 91 324 4.3 11.3 0.00 0.00 0.00 23 976.7
20260503005238 92 351 4.3 13.0 0.00 0.00 0.00 23 976.8
20260503004735 92 357 6.1 13.0 0.00 0.00 0.00 23 976.7
20260503004235 92 337 5.2 13.9 0.00 0.00 0.00 23 976.8
20260503003735 92 357 4.3 13.9 0.00 0.00 0.00 23 976.7
20260503003236 93 338 4.3 14.8 0.00 0.00 0.00 23 976.6
20260503002735 92 333 7.8 14.8 0.00 0.00 0.00 23 976.5
20260503002234 93 355 2.6 11.3 0.00 0.00 0.00 22 976.4
20260503001736 93 341 6.1 12.2 0.00 0.00 0.00 22 976.5
20260503001235 94 351 5.2 12.2 0.00 0.00 0.00 22 976.5
20260503000736 94 0 3.5 12.2 0.00 0.00 0.00 22 976.5
20260502235234 94 345 0.0 7.8 0.00 0.00 0.00 20 976.4
20260502234735 94 345 0.9 7.8 0.00 0.00 0.00 20 976.5
20260502234235 94 28 0.0 1.7 0.00 0.00 0.00 20 976.4
20260502233736 94 358 0.0 0.9 0.00 0.00 0.00 20 976.3
20260502233235 94 358 0.0 0.9 0.00 0.00 0.00 20 976.3
20260502232735 95 358 0.0 6.1 0.00 0.00 0.00 20 976.3
20260502232236 94 358 0.0 9.6 0.00 0.00 0.00 20 976.4
20260502231734 94 350 3.5 9.6 0.00 0.00 0.00 20 976.4
20260502231236 94 344 0.0 10.4 0.00 0.00 0.00 20 976.2
20260502230734 95 347 3.5 10.4 0.00 0.00 0.00 20 976.2
20260502230235 95 337 0.9 3.5 0.00 0.00 0.00 19 976.2
20260502225734 95 52 0.0 2.6 0.00 0.00 0.00 19 976.3
20260502224735 95 20 0.0 0.9 0.00 0.00 0.00 19 976.4
20260502224235 95 47 0.0 0.9 0.00 0.00 0.00 19 976.4
20260502223734 96 0 0.0 1.7 0.00 0.00 0.00 19 976.5
20260502223235 96 0 0.0 1.7 0.00 0.00 0.00 19 976.5
20260502222734 95 1 0.0 4.3 0.00 0.00 0.00 19 976.6
20260502222234 95 348 0.0 5.2 0.00 0.00 0.00 19 976.6
20260502221735 95 0 2.6 6.1 0.00 0.00 0.00 19 976.6
20260502221235 96 331 1.7 6.1 0.00 0.00 0.00 19 976.7
20260502220735 95 1 0.9 2.6 0.00 0.00 0.00 19 976.7
20260502220236 95 0 0.0 3.5 0.00 0.00 0.00 19 976.7
20260502215734 95 0 0.9 4.3 0.00 0.00 0.00 19 976.5